Location: Dennehotso
(36.8461°N, 109.8435°W)
Time: 14:21:32
(UTC+00:00)

Envisat - Pass Details

Date: 12 March 2021
Orbit: 764 x 766 km, 98.1° (Epoch: 17 April)

Event Time Altitude Azimuth Distance (km) Brightness Sun altitude
Rises 12:46:47 0° 14° (NNE) 3,237 6.5 -10.3°
Reaches altitude 10° 12:49:06 10° 17° (NNE) 2,307 5.8 -9.9°
Maximum altitude 12:54:11 71° 102° (ESE) 806 3.3 -8.8°
Drops below altitude 10° 12:59:13 10° 186° (S) 2,291 5.4 -7.8°
Sets 13:01:31 0° 189° (S) 3,213 6.1 -7.4°
